Jordan, MT

5:12 PM MDT on July 21, 2017 (GMT -0600)
Jordan

Weather History for KJDN - January, 2014

Change the Weather History Date:

Saturday, January 18, 2014

  Actual Average Record
Temperature  
Mean Temperature 36 °F 17 °F  
Max Temperature 45 °F 29 °F 59 °F (1919)
Min Temperature 26 °F 6 °F -37 °F (1943)
Degree Days  
Heating Degree Days 29 48  
Month to date heating degree days 699 871  
Since 1 July heating degree days 4286 4321  
Cooling Degree Days 0 0  
Month to date cooling degree days 0 0  
Year to date cooling degree days 0 0  
Moisture  
Dew Point 27 °F    
Average Humidity 69    
Maximum Humidity 85    
Minimum Humidity 53    
Precipitation  
Precipitation 0.00 in 0.00 in 0.12 in (1933)
Month to date precipitation 0.06 0.15  
Year to date precipitation 0.06 0.15  
Snow  
Snow 0.00 in - - ()
Month to date snowfall 0.0  
Since 1 July snowfall 0.0  
Snow Depth 0.00 in    
Sea Level Pressure  
Sea Level Pressure 30.07 in    
Wind  
Wind Speed 9 mph (West)    
Max Wind Speed 23 mph    
Max Gust Speed 28 mph    
T = Trace of Precipitation, MM = Missing Value Source: NWS Daily Summary

Daily Weather History Graph

Daily Weather History Graph

Search for Another Location

Airport or City:

Trip Planner

Search our weather history database for the weather conditions in past years. The results will help you decide how hot, cold, wet, or windy it might be!

Date:

Astronomy

Jan. 18, 2014 Rise Set
Actual Time 7:48 AM MST 4:48 PM MST
Civil Twilight 7:13 AM MST 5:23 PM MST
Nautical Twilight 6:35 AM MST 6:00 PM MST
Astronomical Twilight 5:59 AM MST 6:37 PM MST
Moon 7:47 PM MST (1/18) 8:36 AM MST (1/18)
Length of Visible Light 10h 09m
Length of Day
9h 00m
Waning Gibbous, 94% of the Moon is Illuminated
Jan 18
Waning Gibbous
Jan 23
Last Quarter
Jan 30
New
Feb 6
First Quarter
Feb 14
Full

Hourly Weather History & Observations

Time (MST) Temp. Windchill Dew Point Humidity Pressure Visibility Wind Dir Wind Speed Gust Speed Precip Events Conditions
12:48 AM 36.0 °F 26.0 °F 27.0 °F 70% 30.06 in - WNW 17.3 mph - N/A   Unknown
1:48 AM 36.0 °F 26.0 °F 27.0 °F 70% 30.10 in - NW 17.3 mph - N/A   Unknown
2:48 AM 34.0 °F 25.0 °F 26.1 °F 73% 30.12 in - WNW 12.7 mph - N/A   Unknown
3:48 AM 34.0 °F 22.7 °F 26.1 °F 73% 30.21 in - NW 19.6 mph - N/A   Unknown
4:48 AM 30.9 °F 21.2 °F 25.0 °F 79% 30.22 in - WNW 12.7 mph - N/A   Unknown
5:48 AM 33.1 °F 23.0 °F 26.1 °F 75% 30.22 in - NW 15.0 mph - N/A   Unknown
6:48 AM 28.0 °F 19.3 °F 24.1 °F 85% 30.25 in - WSW 9.2 mph - N/A   Unknown
7:48 AM 27.0 °F 21.6 °F 23.0 °F 85% 30.26 in - West 4.6 mph - N/A   Unknown
8:48 AM 28.9 °F - 24.1 °F 82% 30.24 in - Calm Calm - N/A   Unknown
9:48 AM 33.1 °F 25.5 °F 25.0 °F 72% 30.22 in - West 9.2 mph - N/A   Unknown
10:48 AM 37.9 °F 33.5 °F 28.0 °F 68% 30.19 in - West 5.8 mph - N/A   Unknown
11:48 AM 39.9 °F 33.4 °F 28.0 °F 63% 30.14 in - WSW 10.4 mph - N/A   Unknown
12:48 PM 43.0 °F 38.8 °F 28.9 °F 58% 30.08 in - West 6.9 mph - N/A   Unknown
1:48 PM 45.0 °F 41.8 °F 30.0 °F 56% 30.03 in - West 5.8 mph - N/A   Unknown
2:48 PM 45.0 °F 40.6 °F 28.9 °F 53% 30.01 in - WSW 8.1 mph - N/A   Unknown
3:48 PM 43.0 °F 39.5 °F 30.0 °F 60% 30.00 in - West 5.8 mph - N/A   Unknown
4:48 PM 39.9 °F 35.8 °F 28.9 °F 65% 29.99 in - West 5.8 mph - N/A   Unknown
5:48 PM 34.0 °F 26.6 °F 28.0 °F 79% 29.97 in - West 9.2 mph - N/A   Unknown
6:48 PM 35.1 °F 27.9 °F 28.0 °F 76% 29.96 in - WNW 9.2 mph - N/A   Unknown
7:48 PM 32.0 °F 26.4 °F 26.1 °F 79% 29.94 in - West 5.8 mph - N/A   Unknown
8:48 PM 32.0 °F 28.7 °F 25.0 °F 75% 29.91 in - NW 3.5 mph - N/A   Unknown
9:48 PM 37.0 °F - 26.1 °F 65% 29.88 in - Calm Calm - N/A   Unknown
10:48 PM 35.1 °F 26.9 °F 26.1 °F 70% 29.86 in - West 11.5 mph - N/A   Unknown
11:48 PM 37.0 °F 30.4 °F 26.1 °F 65% 29.83 in - WSW 9.2 mph - N/A   Unknown